Molniya-2

operational
NORAD ID: 8195 Int'l Des: 1975-081 Owner: GUKOSR Country: SU
MEOELLIPTICALHEO_ELLIPTICALSEMI_SYNCMOLNIYA

About Molniya-2

Description loading...

Live Position

Loading 3D Globe...

Upcoming Passes

Altitude History

Altitude vs Time

uPlot chart will show altitude changes over time

Two-Line Element Set

1 08195U 75081A 26010.10929732 -.00001082 00000-0 00000-0 0 9998
2 08195 64.4929 50.9446 6833843 284.6285 13.4256 2.02103682369213
Epoch: Jan 10, 2026 • Age: 256 hours

Current Status

Altitude 37209.3 km
Velocity 1.79 km/s
Sub-Earth Point 56.51°N, 145.76°E
Type other

Large Constellations

Loading constellations...